This demonstration page uses our WeatherBlox Daily Observations layout. Learn more.

Left ArrowRight Arrow

34.74481, -87.66753

Hourly Observations for March 6, 2021

Temp ( °F °C ) Dew Point ( °F °C ) Humidity (%) Winds ( mph kmh ) Pressure ( in mb ) Visibility ( mi km ) Precip ( " mm )
12:53 am 00:53 Cloudy 46 7.8 21 -6.1 37 37 NNE 8 13 30.20 1023 10 16 0.00 0.00
1:53 am 01:53 Cloudy 45 7.2 20 -6.7 37 37 NE 9 15 30.20 1023 10 16 0.00 0.00
2:53 am 02:53 Cloudy 44 6.7 20 -6.7 38 38 NE 12 19 30.20 1023 10 16 0.00 0.00
3:53 am 03:53 Clear 43 6.1 20 -6.7 40 40 NE 14 22 30.20 1023 10 16 0.00 0.00
4:53 am 04:53 Clear 42 5.6 20 -6.7 41 41 NE 12 19 30.22 1023 10 16 0.00 0.00
5:53 am 05:53 Clear 41 5 20 -6.7 43 43 NE 10 17 30.22 1024 10 16 0.00 0.00
6:53 am 06:53 Sunny 42 5.6 21 -6.1 43 43 NNE 7 11 30.26 1025 10 16 0.00 0.00
7:53 am 07:53 Sunny 45 7.2 21 -6.1 39 39 NE 13 20 30.28 1025 10 16 0.00 0.00
8:53 am 08:53 Sunny 47 8.3 21 -6.1 36 36 ENE 17 28 30.30 1026 10 16 0.00 0.00
9:53 am 09:53 Sunny 51 10.6 22 -5.6 32 32 ENE 14 22 30.30 1026 10 16 0.00 0.00
10:53 am 10:53 Sunny 53 11.7 20 -6.7 27 27 ENE 10 17 30.29 1026 10 16 0.00 0.00
11:53 am 11:53 Sunny 56 13.3 23 -5 28 28 NNE 14 22 30.29 1026 10 16 0.00 0.00
12:53 pm 12:53 Sunny 57 13.9 23 -5 27 27 ENE 12 19 30.26 1025 10 16 0.00 0.00
1:53 pm 13:53 Sunny 58 14.4 22 -5.6 25 25 ENE 12 19 30.24 1024 10 16 0.00 0.00
2:53 pm 14:53 Sunny 58 14.4 22 -5.6 25 25 NE 12 19 30.23 1024 10 16 0.00 0.00
3:53 pm 15:53 Sunny 58 14.4 21 -6.1 24 24 NE 14 22 30.23 1024 10 16 0.00 0.00
4:53 pm 16:53 Sunny 57 13.9 21 -6.1 25 25 NNE 12 19 30.22 1024 10 16 0.00 0.00
5:53 pm 17:53 Clear 53 11.7 23 -5 31 31 NNE 6 9 30.24 1024 10 16 0.00 0.00
6:53 pm 18:53 Clear 51 10.6 20 -6.7 29 29 N 5 7 30.26 1025 10 16 0.00 0.00
7:53 pm 19:53 Clear 50 10 20 -6.7 30 30 N 5 7 30.28 1025 10 16 0.00 0.00
8:53 pm 20:53 Clear 49 9.4 21 -6.1 33 33 NNE 6 9 30.30 1026 10 16 0.00 0.00
9:53 pm 21:53 Clear 46 7.8 21 -6.1 37 37 NNE 5 7 30.30 1026 10 16 0.00 0.00
10:53 pm 22:53 Clear 46 7.8 21 -6.1 37 37 NNE 6 9 30.30 1026 10 16 0.00 0.00
11:53 pm 23:53 Clear 45 7.2 21 -6.1 39 39 N 5 7 30.32 1027 10 16 0.00 0.00

Powered by AerisWeather